Tracking 32140 objects as of 14-Nov-2025
HD Live streaming from Space Station
objects crossing your sky now

STARLINK-34768

Track STARLINK-34768 now!
10-day predictions
STARLINK-34768 is classified as:


NORAD ID: 65095
Int'l Code: 2025-167T
Perigee: 481.5 km
Apogee: 483.8 km
Inclination: 53.2 °
Period: 94.1 minutes
Semi major axis: 6853 km
RCS: Unknown
Launch date: August 4, 2025
Source: United States (US)
Launch site: AIR FORCE EASTERN TEST RANGE (AFETR)
Your satellite tracking list
Your tracking list is empty




NASA's NSSDC Master Catalog

Two Line Element Set (TLE):
1 65095U 25167T   25317.72268852  .00056806  00000-0  19219-2 0  9993
2 65095  53.1576 205.3950 0001673 101.8735 258.2453 15.30091726 15728
Source of the keplerian elements: AFSPC